This is the latest recevied weather packets stored in our database for station/object OE2ATN. If no packets are shown the sender has not sent any weather packets the latest 10 day(s).
| Time | Temp. | Humidity | Pressure | Rain* | Wind** | Luminosity | Snow |
|---|---|---|---|---|---|---|---|
| 1777810218 | 25° C | 23% | 1021.3 hPa | 0 mm | - | - | - |
| 1777809917 | 25° C | 22% | 1021.3 hPa | 0 mm | - | - | - |
| 1777809618 | 25° C | 24% | 1021.3 hPa | 0 mm | - | - | - |
| 1777809317 | 25° C | 24% | 1021.4 hPa | 0 mm | - | - | - |
| 1777809018 | 25° C | 23% | 1021.5 hPa | 0 mm | - | - | - |
| 1777808717 | 25° C | 24% | 1021.6 hPa | 0 mm | - | - | - |
| 1777808418 | 25° C | 27% | 1021.7 hPa | 0 mm | - | - | - |
| 1777808117 | 25° C | 26% | 1021.7 hPa | 0 mm | - | - | - |
| 1777807817 | 24.44° C | 25% | 1021.8 hPa | 0 mm | - | - | - |
| 1777807517 | 24.44° C | 28% | 1021.9 hPa | 0 mm | - | - | - |
| 1777807217 | 25° C | 27% | 1021.9 hPa | 0 mm | - | - | - |
| 1777806917 | 24.44° C | 25% | 1021.9 hPa | 0 mm | - | - | - |
| 1777806616 | 24.44° C | 29% | 1022 hPa | 0 mm | - | - | - |
| 1777806317 | 24.44° C | 28% | 1022 hPa | 0 mm | - | - | - |
| 1777806017 | 24.44° C | 27% | 1022.1 hPa | 0 mm | - | - | - |
| 1777805717 | 24.44° C | 28% | 1022.2 hPa | 0 mm | - | - | - |
| 1777805417 | 24.44° C | 28% | 1022.2 hPa | 0 mm | - | - | - |
| 1777805116 | 23.89° C | 27% | 1022.4 hPa | 0 mm | - | - | - |
| 1777804816 | 23.33° C | 38% | 1022.6 hPa | 0 mm | - | - | - |
| 1777804515 | 22.78° C | 41% | 1022.5 hPa | 0 mm | - | - | - |
| 1777804215 | 22.22° C | 40% | 1022.7 hPa | 0 mm | - | - | - |
| 1777803916 | 21.67° C | 43% | 1022.7 hPa | 0 mm | - | - | - |
| 1777803616 | 21.67° C | 43% | 1022.8 hPa | 0 mm | - | - | - |
| 1777803316 | 21.11° C | 44% | 1022.9 hPa | 0 mm | - | - | - |
| 1777803016 | 21.11° C | 46% | 1023 hPa | 0 mm | - | - | - |
* Rain latest hour (hover to see other rain measurements)
** Current wind speed in m/s (hover to see current wind gust speed)